Location: Ariel
(45.9570°N, 122.5700°W)
Time: 07:14:21
(UTC-08:00)

Transit 4A - Pass Details

Date: 30 October 2020
Orbit: 862 x 982 km, 66.8° (Epoch: 03 December)

Event Time Altitude Azimuth Distance (km) Brightness Sun altitude
Rises 22:39:13 0° 329° (NNW) 3,695 11.7 -47.5°
Reaches altitude 10° 22:42:17 10° 341° (NNW) 2,745 10.7 -48.0°
Enters shadow 22:42:30 11° 343° (NNW) 2,685 10.7 -48.0°
